KLM744 SPJC-EHAM

Flight info

Callsign KLM744
Flight time N/A
Altitude 27000
Route ILROL UL342 ENPUT/N0516F290 UL342 KARUM DCT KATOK DCT JANMA DCT HANCY/M085F290 DCT NUBUS DCT DUPAN DCT KOZIK DCT NUMBR/M085F310 DCT 35N060W 44N050W 48N040W 51N030W 53N020W DCT MALOT/N0490F310 DCT GISTI/N0484F330 DCT DUB DCT LIFFY DCT DOLAS L603 LAMSO
Aircraft B77W/H-SDE1E2E3FGHIJ2J3J4J5M1RWXY/LB1D1

Departure

Time N/A
Airport Jorge Chávez International Airport (SPJC)

Arrival

Time 2026-05-07 10:39
Airport Amsterdam Airport Schiphol (EHAM)
Time Latitude Longitude Altitude Speed Heading
2026-05-07 10:21 52.75467 2.82615 22698 ft 422 kts 103°
2026-05-07 10:21 52.74860 2.87304 21851 ft 410 kts 103°
2026-05-07 10:21 52.74274 2.91857 20841 ft 399 kts 102°
2026-05-07 10:22 52.73716 2.96187 20416 ft 376 kts 102°
2026-05-07 10:22 52.73065 3.00273 19925 ft 366 kts 114°
2026-05-07 10:22 52.71875 3.04005 19459 ft 371 kts 119°
2026-05-07 10:22 52.70829 3.08047 18855 ft 398 kts 109°
2026-05-07 10:23 52.69963 3.12441 18306 ft 416 kts 108°
2026-05-07 10:23 52.69068 3.17002 17670 ft 419 kts 108°
2026-05-07 10:23 52.68165 3.21558 17081 ft 416 kts 109°
2026-05-07 10:23 52.67260 3.26056 16525 ft 412 kts 109°
2026-05-07 10:24 52.66354 3.30518 15980 ft 408 kts 109°
2026-05-07 10:24 52.65453 3.34919 15448 ft 405 kts 109°
2026-05-07 10:24 52.64553 3.39297 14913 ft 401 kts 109°
2026-05-07 10:24 52.63659 3.43628 14387 ft 398 kts 109°
2026-05-07 10:25 52.62769 3.47933 13856 ft 396 kts 109°
2026-05-07 10:25 52.61883 3.52207 13276 ft 393 kts 109°
2026-05-07 10:25 52.61004 3.56446 12724 ft 390 kts 109°
2026-05-07 10:25 52.60131 3.60641 12200 ft 386 kts 109°
2026-05-07 10:26 52.59263 3.64806 11686 ft 383 kts 109°
2026-05-07 10:26 52.58413 3.68874 11197 ft 380 kts 109°
2026-05-07 10:26 52.57568 3.72910 11014 ft 367 kts 109°
2026-05-07 10:26 52.56750 3.76813 10851 ft 355 kts 109°
2026-05-07 10:27 52.55959 3.80581 10691 ft 344 kts 109°
2026-05-07 10:27 52.55190 3.84235 10557 ft 333 kts 109°
2026-05-07 10:27 52.54447 3.87766 10426 ft 323 kts 109°
2026-05-07 10:27 52.53720 3.91209 10275 ft 314 kts 109°
2026-05-07 10:28 52.53014 3.94541 10165 ft 304 kts 109°
2026-05-07 10:28 52.52324 3.97762 10033 ft 294 kts 110°
2026-05-07 10:28 52.51594 4.00836 9926 ft 283 kts 113°
2026-05-07 10:28 52.50576 4.03544 9606 ft 280 kts 128°
2026-05-07 10:29 52.49314 4.05974 9170 ft 283 kts 131°
2026-05-07 10:29 52.48005 4.08349 8747 ft 285 kts 132°
2026-05-07 10:29 52.46660 4.10763 8317 ft 288 kts 132°
2026-05-07 10:30 52.43929 4.15615 7455 ft 292 kts 132°
2026-05-07 10:30 52.42546 4.18051 7030 ft 289 kts 132°
2026-05-07 10:30 52.41206 4.20396 6586 ft 275 kts 132°
2026-05-07 10:30 52.39926 4.22621 6120 ft 263 kts 132°
2026-05-07 10:31 52.38697 4.24745 5655 ft 251 kts 132°
2026-05-07 10:31 52.37499 4.26791 5362 ft 248 kts 132°
2026-05-07 10:31 52.36298 4.28820 4977 ft 249 kts 132°
2026-05-07 10:31 52.35105 4.30824 4580 ft 249 kts 132°
2026-05-07 10:32 52.33891 4.32850 4198 ft 250 kts 132°
2026-05-07 10:32 52.32672 4.34870 3822 ft 250 kts 132°
2026-05-07 10:32 52.31449 4.36892 3465 ft 250 kts 132°
2026-05-07 10:32 52.30245 4.38880 3278 ft 242 kts 132°
2026-05-07 10:33 52.29079 4.40795 3107 ft 234 kts 132°
2026-05-07 10:33 52.27947 4.42653 2937 ft 227 kts 132°
2026-05-07 10:33 52.26834 4.44478 2743 ft 227 kts 132°
2026-05-07 10:33 52.25726 4.46302 2667 ft 226 kts 133°
2026-05-07 10:34 52.24611 4.48135 2612 ft 229 kts 132°
2026-05-07 10:34 52.23477 4.49975 2522 ft 230 kts 132°
2026-05-07 10:34 52.22349 4.51815 2515 ft 229 kts 132°
2026-05-07 10:34 52.21342 4.53715 2253 ft 216 kts 114°
2026-05-07 10:35 52.21109 4.55895 2110 ft 181 kts 75°
2026-05-07 10:35 52.21782 4.57579 2089 ft 181 kts 38°
2026-05-07 10:35 52.22771 4.58891 2092 ft 185 kts 43°
2026-05-07 10:35 52.23598 4.60415 2017 ft 171 kts 49°
2026-05-07 10:36 52.24301 4.61868 1839 ft 156 kts 52°
2026-05-07 10:36 52.24872 4.63250 1608 ft 137 kts 54°
2026-05-07 10:36 52.25388 4.64584 1428 ft 140 kts 56°
2026-05-07 10:36 52.25901 4.65905 1287 ft 141 kts 55°
2026-05-07 10:37 52.26416 4.67245 1044 ft 139 kts 55°
2026-05-07 10:37 52.26884 4.68462 840 ft 136 kts 56°
2026-05-07 10:37 52.27394 4.69790 635 ft 139 kts 56°
2026-05-07 10:37 52.27912 4.71143 405 ft 140 kts 57°
2026-05-07 10:38 52.28430 4.72482 231 ft 141 kts 57°
2026-05-07 10:38 52.28956 4.73843 40 ft 140 kts 57°
2026-05-07 10:38 52.29424 4.75054 1 ft 105 kts 57°
2026-05-07 10:38 52.29715 4.75812 1 ft 57 kts 57°
2026-05-07 10:39 52.29918 4.76340 -2 ft 45 kts 60°
2026-05-07 10:39 52.30044 4.76546 2 ft 25 kts 31°
2026-05-07 10:39 52.30164 4.76654 3 ft 14 kts 29°
2026-05-07 10:39 52.30238 4.76720 2 ft 8 kts 27°
2026-05-07 10:40 52.30285 4.76767 2 ft 8 kts 39°
2026-05-07 10:40 52.30320 4.76840 2 ft 8 kts 58°
2026-05-07 10:40 52.30350 4.76919 2 ft 8 kts 58°
2026-05-07 10:40 52.30380 4.76999 2 ft 8 kts 58°
2026-05-07 10:41 52.30423 4.77113 2 ft 16 kts 57°
2026-05-07 10:41 52.30481 4.77263 2 ft 16 kts 58°
2026-05-07 10:41 52.30538 4.77412 2 ft 15 kts 58°
2026-05-07 10:41 52.30598 4.77545 2 ft 14 kts 38°
2026-05-07 10:42 52.30692 4.77591 2 ft 15 kts
2026-05-07 10:42 52.30792 4.77601 2 ft 15 kts
2026-05-07 10:42 52.30893 4.77609 2 ft 15 kts
2026-05-07 10:42 52.30994 4.77618 2 ft 15 kts
2026-05-07 10:43 52.31095 4.77628 2 ft 15 kts
2026-05-07 10:43 52.31196 4.77639 2 ft 15 kts
2026-05-07 10:43 52.31296 4.77649 2 ft 15 kts
2026-05-07 10:43 52.31397 4.77655 2 ft 14 kts 359°
2026-05-07 10:44 52.31489 4.77596 2 ft 15 kts 321°
2026-05-07 10:44 52.31560 4.77477 2 ft 15 kts 308°
2026-05-07 10:44 52.31576 4.77319 2 ft 15 kts 269°
2026-05-07 10:44 52.31574 4.77153 2 ft 15 kts 267°
2026-05-07 10:45 52.31566 4.76987 2 ft 15 kts 266°
2026-05-07 10:45 52.31560 4.76822 2 ft 13 kts 268°
2026-05-07 10:45 52.31551 4.76703 2 ft 9 kts 247°
2026-05-07 10:45 52.31494 4.76672 2 ft 9 kts 180°
2026-05-07 10:46 52.31435 4.76630 2 ft 9 kts 214°
2026-05-07 10:46 52.31390 4.76580 2 ft 5 kts 214°
2026-05-07 10:46 52.31355 4.76580 2 ft 5 kts 156°
2026-05-07 10:46 52.31337 4.76625 2 ft 3 kts 118°
2026-05-07 10:47 52.31326 4.76653 2 ft 0 kts 123°